[[{"header":{"parameterUnit":"m.s-1","parameterCategory":1,"la1":30.2991,"la2":30.254,"lo1":-89.0895,"lo2":-89.0444,"dy":0.0017,"dx":0.0017,"nx":28,"ny":28,"refTime":"2024-06-04T09:00:00:Z","depth":0,"parameterNumber":2,"parameterNumberName":"U-component_of_WINDS"},"data":[0,0,0,0,0,0,0,0,0,0,0,0,0,0,0,0,0,0,0,0,0,0,0,0,0,0,0,0,0,0,0,0,0,0,0,0,0,0,0,0,0,0,0,0,0,0,0,0,0,0,0,0,0,0,0,0,0,0,-0.431,-0.4309,0,-0.4236,-0.4235,-0.4234,-0.4215,-0.4216,-0.4216,-0.4216,-0.4139,-0.4136,-0.4134,0,0,0,0,0,0,0,0,0,0,0,0,0,-0.4435,-0.4433,-0.431,-0.4309,-0.4308,-0.4236,-0.4235,-0.4234,-0.4215,-0.4216,-0.4216,-0.4217,-0.4139,-0.4136,-0.4133,0,0,0,0,0,0,0,0,0,0,0,0,0,-0.4373,-0.4432,-0.431,-0.429,-0.4288,-0.4236,-0.4235,-0.4234,-0.4215,-0.4216,-0.4216,-0.4217,-0.414,-0.4137,-0.4133,-0.4096,0,0,-0.4121,-0.412,0,0,0,0,0,0,0,0,-0.4377,-0.4368,-0.4294,-0.4292,-0.4289,-0.4235,-0.425,-0.4187,-0.4215,-0.4243,-0.4216,-0.4217,-0.417,-0.4164,-0.4148,-0.4092,-0.4089,-0.4121,-0.4119,-0.4117,-0.4116,0,0,0,0,0,0,0,-0.4381,-0.4371,-0.4281,-0.4293,-0.429,-0.4285,-0.4277,-0.4238,-0.4203,-0.424,-0.4239,-0.423,-0.4169,-0.4152,-0.4146,-0.4087,-0.4121,-0.4118,-0.4116,-0.4114,-0.3997,-0.3996,0,0,0,0,0,0,-0.4389,-0.4375,-0.4283,-0.4279,-0.4335,-0.4282,-0.4273,-0.4252,-0.4204,-0.4197,-0.423,-0.423,-0.4158,-0.4151,-0.4144,-0.4096,-0.4117,-0.4114,-0.4112,-0.3998,-0.3997,-0.3996,0,0,0,0,0,0,-0.4392,-0.4381,-0.4286,-0.4326,-0.4314,-0.4279,-0.4256,-0.425,-0.4233,-0.4196,-0.4189,-0.4219,-0.4158,-0.4149,-0.4108,-0.4094,-0.4112,-0.4109,-0.3999,-0.3997,-0.3996,-0.4002,0,0,0,0,0,0,-0.4395,-0.4382,-0.4367,-0.4326,-0.4312,-0.4252,-0.4255,-0.4248,-0.4227,-0.4226,-0.4184,-0.4178,-0.4158,-0.4114,-0.4104,-0.4089,-0.4106,-0.4,-0.3998,-0.3997,-0.4003,-0.4001,-0.4,0,0,0,0,0,-0.44,-0.4372,-0.4367,-0.4356,-0.4293,-0.4251,-0.4243,-0.4221,-0.4226,-0.4211,-0.4187,-0.4179,-0.4097,-0.411,-0.4099,-0.4082,-0.4001,-0.3999,-0.3997,-0.4004,-0.4002,-0.4,0,0,0,0,0,0,-0.4411,-0.4366,-0.436,-0.4318,-0.4288,-0.4248,-0.4228,-0.422,-0.4188,-0.4189,-0.4163,-0.4154,-0.4114,-0.4094,-0.4109,-0.4043,-0.4049,-0.4045,-0.4058,-0.4055,-0.4054,-0.4059,-0.4103,0,0,0,0,0,-0.4409,-0.4379,-0.4341,-0.4307,-0.4293,-0.4263,-0.4244,-0.423,-0.4199,-0.4186,-0.4159,-0.4128,-0.4096,-0.4075,-0.4042,-0.4001,-0.3991,-0.3984,-0.3982,-0.3981,-0.3977,-0.3954,-0.395,-0.399,-0.399,-0.399,0,0,-0.4403,-0.4375,-0.4357,-0.4309,-0.4284,-0.4254,-0.4253,-0.422,-0.4197,-0.4181,-0.4141,-0.412,-0.4084,-0.4043,-0.4023,-0.4024,-0.3965,-0.3979,-0.3978,-0.3975,-0.3951,-0.3948,-0.3944,-0.3988,-0.3988,-0.3989,0,0,-0.4378,-0.4354,-0.4323,-0.4299,-0.4263,-0.4243,-0.4236,-0.4197,-0.4183,-0.4142,-0.413,-0.4102,-0.4046,-0.4021,-0.4001,-0.3968,-0.3959,-0.3958,-0.3949,-0.3926,-0.3923,-0.392,-0.3908,-0.3904,-0.3955,-0.3955,-0.3955,0,-0.4375,-0.4329,-0.4308,-0.4276,-0.4255,-0.424,-0.4209,-0.4187,-0.4141,-0.4127,-0.413,-0.406,-0.4035,-0.3987,-0.3979,-0.3964,-0.3955,-0.3962,-0.3925,-0.3922,-0.3919,-0.3907,-0.3902,-0.3955,-0.3955,-0.3955,-0.3955,0,-0.4328,-0.4296,-0.4275,-0.4233,-0.421,-0.4178,-0.4152,-0.4131,-0.412,-0.4101,-0.406,-0.4029,-0.3991,-0.3979,-0.3967,-0.393,-0.3932,-0.393,-0.3935,-0.3916,-0.3904,-0.3899,-0.3955,-0.3955,-0.3955,-0.3955,0,0,-0.4305,-0.4253,-0.4246,-0.4226,-0.4186,-0.4161,-0.4129,-0.4092,-0.4074,-0.4044,-0.4016,-0.397,-0.3969,-0.3946,-0.3932,-0.3912,-0.3888,-0.3913,-0.3912,-0.3909,-0.3844,-0.3845,-0.384,-0.3882,-0.3881,-0.3881,-0.3847,0,-0.4274,-0.4217,-0.4198,-0.415,-0.412,-0.4107,-0.4079,-0.4051,-0.4032,-0.4004,-0.3983,-0.3951,-0.3952,-0.3938,-0.3918,-0.3895,-0.3874,-0.3897,-0.3856,-0.3854,-0.3864,-0.3834,-0.3834,-0.3804,-0.3842,-0.3841,-0.3841,0,-0.423,-0.42,-0.4149,-0.4113,-0.41,-0.4075,-0.404,-0.4014,-0.3982,-0.397,-0.3945,-0.3933,-0.3899,-0.3907,-0.3859,-0.3876,-0.3858,-0.3844,-0.3842,-0.3837,-0.3846,-0.3827,-0.3794,-0.3789,-0.3834,-0.3834,-0.3835,0,-0.4218,-0.4165,-0.4128,-0.4112,-0.4069,-0.4052,-0.4033,-0.4002,-0.3982,-0.3951,-0.3937,-0.3903,-0.3884,-0.3858,-0.3837,-0.3845,-0.3792,-0.3798,-0.378,-0.378,-0.3768,-0.3769,-0.3731,-0.3759,-0.3759,-0.3759,-0.3759,0,-0.4185,-0.4154,-0.4122,-0.4099,-0.4065,-0.4044,-0.401,-0.3991,-0.3963,-0.3936,-0.3923,-0.3898,-0.3871,-0.3843,-0.3826,-0.3789,-0.3781,-0.377,-0.3766,-0.377,-0.3772,-0.3758,-0.3759,-0.3757,-0.3758,-0.3758,-0.3758,0,-0.4165,-0.4143,-0.4101,-0.4065,-0.4055,-0.4031,-0.3999,-0.3976,-0.3958,-0.3924,-0.3915,-0.3885,-0.3851,-0.3827,-0.3783,-0.3772,-0.3732,-0.3729,-0.3743,-0.3741,-0.3724,-0.3726,-0.3675,-0.3667,-0.3701,-0.37,-0.37,0,-0.4145,-0.4121,-0.4082,-0.4063,-0.4045,-0.4015,-0.3994,-0.3972,-0.3951,-0.3914,-0.3895,-0.3861,-0.3831,-0.3777,-0.3752,-0.3718,-0.3713,-0.3698,-0.3708,-0.3714,-0.3712,-0.3713,-0.3711,-0.3696,-0.3696,-0.3695,-0.3695,0,-0.4111,-0.4101,-0.4072,-0.4039,-0.4014,-0.3987,-0.396,-0.3945,-0.3919,-0.3896,-0.3861,-0.3838,-0.3794,-0.3759,-0.3724,-0.3704,-0.3695,-0.3693,-0.3686,-0.3691,-0.37,-0.3694,-0.3738,-0.3693,-0.3694,-0.3694,-0.3694,-0.3694,-0.409,-0.4068,-0.4038,-0.4005,-0.3983,-0.3958,-0.3935,-0.3914,-0.3884,-0.3847,-0.3836,-0.38,-0.3769,-0.3721,-0.3701,-0.3672,-0.3673,-0.3664,-0.3662,-0.366,-0.366,-0.3705,-0.3665,-0.3665,-0.3665,-0.3665,-0.3665,0,-0.4055,-0.4035,-0.4005,-0.3968,-0.3943,-0.3938,-0.3907,-0.3886,-0.3855,-0.3827,-0.3799,-0.376,-0.3726,-0.3699,-0.3664,-0.3647,-0.3642,-0.3638,-0.3639,-0.3634,-0.3661,-0.3669,-0.3643,-0.3643,-0.3643,-0.3643,-0.3643,-0.3643,-0.4033,-0.3997,-0.3984,-0.3936,-0.3916,-0.388,-0.3864,-0.384,-0.3818,-0.3775,-0.3747,-0.373,-0.3702,-0.3666,-0.3635,-0.3628,-0.3616,-0.3613,-0.3605,-0.363,-0.3632,-0.3635,-0.3642,-0.3611,-0.3611,-0.358,-0.358,-0.358]},{"header":{"parameterUnit":"m.s-1","parameterCategory":1,"la1":30.2991,"la2":30.254,"lo1":-89.0895,"lo2":-89.0444,"dy":0.0017,"dx":0.0017,"nx":28,"ny":28,"refTime":"2024-06-04T09:00:00:Z","depth":0,"parameterNumber":3,"parameterNumberName":"V-component_of_WINDS"},"data":[0,0,0,0,0,0,0,0,0,0,0,0,0,0,0,0,0,0,0,0,0,0,0,0,0,0,0,0,0,0,0,0,0,0,0,0,0,0,0,0,0,0,0,0,0,0,0,0,0,0,0,0,0,0,0,0,0,0,4.7714,4.7714,0,4.7736,4.7736,4.7737,4.7673,4.7671,4.7669,4.7667,4.7688,4.769,4.7693,0,0,0,0,0,0,0,0,0,0,0,0,0,4.7613,4.7615,4.7714,4.7714,4.7714,4.7736,4.7736,4.7737,4.7674,4.7671,4.7669,4.7667,4.7687,4.769,4.7693,0,0,0,0,0,0,0,0,0,0,0,0,0,4.7648,4.7616,4.7714,4.7686,4.7683,4.7736,4.7736,4.7737,4.7674,4.7671,4.7668,4.7665,4.7686,4.769,4.7693,4.7774,0,0,4.7704,4.7706,0,0,0,0,0,0,0,0,4.7646,4.7652,4.7689,4.7688,4.7685,4.7699,4.7708,4.7749,4.7675,4.7677,4.7667,4.7664,4.7694,4.7697,4.7707,4.7775,4.7776,4.7705,4.7707,4.7708,4.7709,0,0,0,0,0,0,0,4.7644,4.765,4.7722,4.769,4.7687,4.767,4.7672,4.7716,4.7702,4.7677,4.7672,4.7676,4.7692,4.7704,4.7707,4.7776,4.7705,4.7708,4.771,4.7711,4.7909,4.7912,0,0,0,0,0,0,4.7645,4.7649,4.7722,4.7723,4.7658,4.7675,4.7677,4.7697,4.7701,4.7699,4.7679,4.7673,4.7699,4.7703,4.7708,4.7801,4.7708,4.7712,4.7714,4.7906,4.791,4.7913,0,0,0,0,0,0,4.7643,4.7653,4.7721,4.7685,4.7692,4.768,4.7703,4.7699,4.7711,4.7702,4.7699,4.7693,4.7697,4.7703,4.7758,4.7801,4.7713,4.7716,4.7902,4.7907,4.7911,4.799,0,0,0,0,0,0,4.7641,4.7652,4.7684,4.7686,4.7694,4.7772,4.7706,4.7702,4.7718,4.7711,4.7715,4.7713,4.7695,4.7753,4.7761,4.7805,4.7719,4.7898,4.7904,4.791,4.7983,4.7997,4.8008,0,0,0,0,0,4.7637,4.7705,4.7686,4.7695,4.7734,4.7775,4.7779,4.7758,4.7722,4.7752,4.7746,4.7713,4.7795,4.7759,4.7768,4.7813,4.7895,4.7903,4.7909,4.7978,4.7994,4.8008,0,0,0,0,0,0,4.7708,4.7705,4.7683,4.7754,4.7765,4.7764,4.7802,4.7776,4.7797,4.7789,4.7761,4.7762,4.7822,4.7823,4.7783,4.789,4.7839,4.7848,4.7888,4.7903,4.7915,4.7914,4.7722,0,0,0,0,0,4.7732,4.7766,4.7761,4.7824,4.783,4.7815,4.7832,4.7815,4.7825,4.7829,4.7827,4.7837,4.7865,4.7884,4.7909,4.7983,4.7982,4.8018,4.803,4.8041,4.8049,4.8087,4.8102,4.7936,4.7936,4.7936,0,0,4.7781,4.7784,4.7807,4.7838,4.7844,4.7879,4.782,4.786,4.7885,4.7835,4.7887,4.7885,4.7895,4.7959,4.7987,4.7962,4.8095,4.805,4.8058,4.8061,4.8096,4.8111,4.8125,4.7941,4.794,4.7939,0,0,4.7889,4.7895,4.7947,4.7955,4.7965,4.7954,4.7967,4.7969,4.7967,4.8018,4.7981,4.801,4.8059,4.8067,4.8077,4.8186,4.8156,4.8195,4.826,4.8297,4.831,4.8321,4.836,4.8374,4.8203,4.8203,4.8203,0,4.7949,4.8002,4.7977,4.8019,4.8033,4.7989,4.8041,4.8049,4.8067,4.8077,4.8048,4.8107,4.8111,4.8176,4.8202,4.8212,4.8225,4.8195,4.831,4.8321,4.8332,4.8368,4.8382,4.8208,4.8207,4.8207,4.8206,0,4.8074,4.8111,4.8152,4.817,4.8189,4.8235,4.8217,4.8238,4.8218,4.821,4.8262,4.8264,4.8289,4.8302,4.8284,4.8365,4.8348,4.8315,4.8263,4.8353,4.8386,4.84,4.8215,4.8213,4.8212,4.821,0,0,4.823,4.8233,4.8248,4.8255,4.8262,4.829,4.8333,4.8357,4.8376,4.8389,4.8424,4.8466,4.8435,4.8447,4.8428,4.8461,4.8546,4.8423,4.8423,4.8446,4.8634,4.8659,4.8676,4.8526,4.8528,4.853,4.8633,0,4.8336,4.8412,4.839,4.8466,4.8498,4.8456,4.8493,4.8501,4.8495,4.852,4.8512,4.8542,4.8499,4.8506,4.8536,4.8529,4.8583,4.8521,4.8558,4.8559,4.8557,4.8693,4.872,4.8817,4.8646,4.8648,4.865,0,4.847,4.8489,4.8568,4.8568,4.8581,4.8616,4.8635,4.866,4.8668,4.866,4.8673,4.8647,4.8688,4.8636,4.8692,4.8651,4.8664,4.8662,4.8666,4.8668,4.861,4.87,4.8848,4.8863,4.867,4.8669,4.8667,0,4.8575,4.8619,4.8672,4.868,4.8681,4.8706,4.8708,4.8713,4.8728,4.8744,4.8753,4.8775,4.8786,4.8803,4.8782,4.8746,4.8842,4.8788,4.8836,4.8837,4.8859,4.8858,4.9011,4.8867,4.8867,4.8867,4.8866,0,4.8696,4.8746,4.8719,4.8752,4.8805,4.8779,4.8833,4.8829,4.8833,4.8863,4.8827,4.8856,4.8828,4.8854,4.8838,4.8887,4.8892,4.8887,4.8882,4.8891,4.8891,4.8899,4.8892,4.8871,4.887,4.8869,4.8868,0,4.8823,4.8807,4.8861,4.8858,4.8858,4.8898,4.8894,4.8924,4.8913,4.8952,4.8959,4.8943,4.8972,4.8953,4.8982,4.8971,4.9035,4.9021,4.9033,4.9029,4.9078,4.9074,4.9243,4.9263,4.9106,4.9108,4.9109,0,4.8902,4.8939,4.8939,4.8957,4.8961,4.899,4.9005,4.8979,4.8996,4.9006,4.9034,4.9059,4.9078,4.9126,4.9116,4.9138,4.9124,4.9181,4.9127,4.9134,4.9125,4.9123,4.9126,4.9193,4.9195,4.9196,4.9197,0,4.9043,4.9033,4.9056,4.9076,4.9095,4.911,4.9121,4.9137,4.9111,4.9132,4.9161,4.9175,4.9204,4.923,4.9247,4.9248,4.9218,4.9214,4.9227,4.9236,4.9241,4.9238,4.9063,4.9211,4.9209,4.9209,4.9208,4.9207,4.9148,4.9179,4.9183,4.921,4.9215,4.9226,4.9253,4.9246,4.9269,4.9291,4.9274,4.9308,4.9312,4.9333,4.9337,4.9362,4.9339,4.9357,4.9362,4.9366,4.9373,4.9237,4.9366,4.9365,4.9365,4.9364,4.9364,0,4.9287,4.9287,4.9312,4.9329,4.9349,4.9319,4.933,4.9349,4.9379,4.9386,4.9405,4.9437,4.9461,4.9453,4.9474,4.9496,4.9483,4.9502,4.9501,4.9501,4.9393,4.938,4.9513,4.9513,4.9512,4.9512,4.9512,4.9512,4.9362,4.9412,4.9402,4.9453,4.9452,4.9486,4.9494,4.9504,4.9509,4.9546,4.9566,4.956,4.956,4.9581,4.9601,4.9598,4.9607,4.9632,4.9624,4.9523,4.9509,4.9495,4.9483,4.9634,4.9634,4.9729,4.973,4.9731]}]]